Погода в Тупрунке

Россия / Кировская область     60°03′26″N   53°27′18″E
темп.,
°C
ветер,
м/с
пор.,
м/с
влажн.,
%
обл.,
%
осадки,
мм/ч
давл.,
гПа
погр.,
м
6 мая, чт
чт600:00+2з5109182 0.2 1001711
03:00+2зсз51090100 0.4 1003952
06:00+2з5982100 0.3 10061154
09:00+3зсз5967100 0.4 10081347
12:00+6зсз695593 0.1 10111601
15:00+9зсз494580 0.1 10121710
18:00+8з375610 0.0 1012348
21:00+4юз237765 0.0 101354
7 мая, пт
пт700:00+4ю2784100 0.0 1013118
03:00+6ю3129098 0.2 1012353
06:00+10ююз41383100 0.0 1012585
09:00+14юз5106022 0.0 10121164
12:00+18юз6104182 0.0 10112569
15:00+17ююз51050100 0.0 10121989
18:00+14ююз51158100 0.1 10121158
21:00+11юз51182100 0.4 1013818
8 мая, сб
сб800:00+8зюз388634 0.3 1016618
03:00+5юз27977 0.3 1018197
06:00+8з24770 0.0 1020301
09:00+13з22420 0.0 10201167
12:00+17юз123221 0.0 10191734
15:00+17ююв23280 0.0 10192202
18:00+15юв48413 0.0 1018396
21:00+10юв3116348 0.0 1018214
9 мая, вс
вс900:00+9юв311806 0.0 1018239
03:00+10ююв4128146 0.0 1017308
06:00+13ююв514665 0.0 1016579
09:00+18ю6124515 0.0 10151924
12:00+21ю61035100 0.0 10152641
15:00+21ююз5938100 0.0 10152782
18:00+16юз3759100 0.0 1016357
21:00+14ююз2671100 0.0 1017171
10 мая, пн
пн1000:00+9зсз3680100 0.1 1019419
03:00+8зсз2793100 2.4 1021588
06:00+7зсз2588100 0.4 1023519
09:00+8зсз3476100 0.6 1024950
12:00+9зсз346226 0.1 10251150
15:00+13сз253828 0.1 10252093
18:00+12з24454 0.0 1025165
21:00+7з226372 0.0 102641